Time,TemperatureF,DewpointF,PressureIn,WindDirection,WindDirectionDegrees,WindSpeedMPH,WindSpeedGustMPH,Humidity,HourlyPrecipIn,Conditions,Clouds,dailyrainin,SolarRadiationWatts/m^2,SoftwareType,DateUTC
2013-03-19 00:00:00,34.3,19.8,29.89,East,83,7.0,10.0,55,0.00,,---,0.01,0.00,VWS V14.01,2013-03-19 05:00:00,
2013-03-19 00:04:00,34.3,19.8,29.89,WSW,250,6.0,9.0,55,0.00,,---,0.00,0.00,VWS V14.01,2013-03-19 05:04:00,
2013-03-19 00:05:00,34.1,19.6,29.89,ESE,104,6.0,9.0,55,0.00,,---,0.00,0.00,VWS V14.01,2013-03-19 05:05:00,
2013-03-19 00:09:00,34.1,20.1,29.89,SSW,203,6.0,10.0,56,0.00,,---,0.00,0.00,VWS V14.01,2013-03-19 05:09:00,
2013-03-19 00:10:00,34.0,20.0,29.89,ENE,62,7.0,10.0,56,0.00,,---,0.00,0.00,VWS V14.01,2013-03-19 05:10:00,
2013-03-19 00:14:00,33.8,19.8,29.90,South,189,8.0,10.0,56,0.00,,---,0.00,0.00,VWS V14.01,2013-03-19 05:14:00,
2013-03-19 00:15:00,33.7,19.7,29.90,ENE,64,9.0,10.0,56,0.00,,---,0.00,0.00,VWS V14.01,2013-03-19 05:15:00,
2013-03-19 00:19:00,33.7,20.1,29.90,SSE,157,8.0,10.0,57,0.00,,---,0.00,0.00,VWS V14.01,2013-03-19 05:19:00,
2013-03-19 00:20:00,33.7,20.1,29.90,NE,52,8.0,10.0,57,0.00,,---,0.00,0.00,VWS V14.01,2013-03-19 05:20:00,
2013-03-19 00:24:00,33.7,20.1,29.90,East,95,8.0,10.0,57,0.00,,---,0.00,0.00,VWS V14.01,2013-03-19 05:24:00,
2013-03-19 00:25:00,33.7,20.1,29.90,NW,306,10.0,10.0,57,0.00,,---,0.00,0.00,VWS V14.01,2013-03-19 05:25:00,
2013-03-19 00:30:00,33.5,19.9,29.91,ENE,65,10.0,11.0,57,0.00,,---,0.00,0.00,VWS V14.01,2013-03-19 05:30:00,
2013-03-19 00:35:00,33.1,19.5,29.91,SSE,154,6.0,10.0,57,0.00,,---,0.00,0.00,VWS V14.01,2013-03-19 05:35:00,
2013-03-19 00:40:00,32.8,19.7,29.91,South,176,7.0,8.0,58,0.00,,---,0.00,0.00,VWS V14.01,2013-03-19 05:40:00,
2013-03-19 00:45:00,32.7,19.6,29.91,SSW,213,10.0,10.0,58,0.00,,---,0.00,0.00,VWS V14.01,2013-03-19 05:45:00,
2013-03-19 00:50:00,32.7,19.6,29.91,ESE,107,8.0,10.0,58,0.00,,---,0.00,0.00,VWS V14.01,2013-03-19 05:50:00,
2013-03-19 00:55:00,32.7,19.6,29.91,SE,127,8.0,8.0,58,0.00,,---,0.00,0.00,VWS V14.01,2013-03-19 05:55:00,
2013-03-19 01:00:00,32.4,19.3,29.90,ENE,75,8.0,8.0,58,0.00,,---,0.00,0.00,VWS V14.01,2013-03-19 06:00:00,
2013-03-19 01:05:00,32.7,19.2,29.90,SE,138,8.0,10.0,57,0.00,,---,0.00,0.00,VWS V14.01,2013-03-19 06:05:00,
2013-03-19 01:10:00,32.7,19.2,29.90,ENE,65,10.0,11.0,57,0.00,,---,0.00,0.00,VWS V14.01,2013-03-19 06:10:00,
2013-03-19 01:12:00,32.5,19.0,29.90,WSW,250,10.0,11.0,57,0.00,,---,0.00,0.00,VWS V14.01,2013-03-19 06:12:00,
2013-03-19 01:15:00,32.4,18.9,29.90,ENE,64,8.0,11.0,57,0.00,,---,0.00,0.00,VWS V14.01,2013-03-19 06:15:00,
2013-03-19 01:17:00,32.4,18.9,29.90,South,179,8.0,9.0,57,0.00,,---,0.00,0.00,VWS V14.01,2013-03-19 06:17:00,
2013-03-19 01:20:00,32.2,19.1,29.90,ENE,69,7.0,9.0,58,0.00,,---,0.00,0.00,VWS V14.01,2013-03-19 06:20:00,
2013-03-19 01:22:00,32.1,19.0,29.90,ENE,69,6.0,7.0,58,0.00,,---,0.00,0.00,VWS V14.01,2013-03-19 06:22:00,
2013-03-19 01:25:00,31.8,18.7,29.90,SW,232,7.0,7.0,58,0.00,,---,0.00,0.00,VWS V14.01,2013-03-19 06:25:00,
2013-03-19 01:27:00,31.6,18.5,29.90,SSW,202,7.0,7.0,58,0.00,,---,0.00,0.00,VWS V14.01,2013-03-19 06:27:00,
2013-03-19 01:30:00,31.5,18.8,29.90,NE,49,6.0,8.0,59,0.00,,---,0.00,0.00,VWS V14.01,2013-03-19 06:30:00,
2013-03-19 01:32:00,31.3,18.6,29.90,NE,55,7.0,9.0,59,0.00,,---,0.00,0.00,VWS V14.01,2013-03-19 06:32:00,
2013-03-19 01:35:00,31.2,18.6,29.90,ENE,64,7.0,9.0,59,0.00,,---,0.00,0.00,VWS V14.01,2013-03-19 06:35:00,
2013-03-19 01:37:00,31.2,18.5,29.90,SSW,213,7.0,8.0,59,0.00,,---,0.00,0.00,VWS V14.01,2013-03-19 06:37:00,
2013-03-19 01:40:00,31.0,18.4,29.90,ENE,61,8.0,8.0,59,0.00,,---,0.00,0.00,VWS V14.01,2013-03-19 06:40:00,
2013-03-19 01:42:00,30.9,18.7,29.90,South,176,7.0,8.0,60,0.00,,---,0.00,0.00,VWS V14.01,2013-03-19 06:42:00,
2013-03-19 01:45:00,30.7,18.5,29.91,ENE,59,6.0,8.0,60,0.00,,---,0.00,0.00,VWS V14.01,2013-03-19 06:45:00,
2013-03-19 01:47:00,30.6,18.4,29.91,NE,56,7.0,8.0,60,0.00,,---,0.00,0.00,VWS V14.01,2013-03-19 06:47:00,
2013-03-19 01:50:00,30.4,18.6,29.91,NE,52,8.0,8.0,61,0.00,,---,0.00,0.00,VWS V14.01,2013-03-19 06:50:00,
2013-03-19 01:52:00,30.4,18.6,29.91,ENE,71,6.0,8.0,61,0.00,,---,0.00,0.00,VWS V14.01,2013-03-19 06:52:00,
2013-03-19 01:55:00,30.3,18.5,29.91,ENE,59,7.0,8.0,61,0.00,,---,0.00,0.00,VWS V14.01,2013-03-19 06:55:00,
2013-03-19 01:57:00,30.3,18.5,29.91,ENE,68,7.0,8.0,61,0.00,,---,0.00,0.00,VWS V14.01,2013-03-19 06:57:00,
2013-03-19 02:00:00,30.3,18.5,29.91,ENE,69,6.0,8.0,61,0.00,,---,0.00,0.00,VWS V14.01,2013-03-19 07:00:00,
2013-03-19 02:02:00,30.3,18.5,29.91,NE,55,7.0,8.0,61,0.00,,---,0.00,0.00,VWS V14.01,2013-03-19 07:02:00,
2013-03-19 02:05:00,30.3,18.5,29.91,East,86,8.0,8.0,61,0.00,,---,0.00,0.00,VWS V14.01,2013-03-19 07:05:00,
2013-03-19 02:07:00,30.3,18.5,29.91,East,82,7.0,8.0,61,0.00,,---,0.00,0.00,VWS V14.01,2013-03-19 07:07:00,
2013-03-19 02:10:00,30.3,18.5,29.91,East,99,8.0,9.0,61,0.00,,---,0.00,0.00,VWS V14.01,2013-03-19 07:10:00,
2013-03-19 02:12:00,30.4,18.2,29.91,SW,229,7.0,9.0,60,0.00,,---,0.00,0.00,VWS V14.01,2013-03-19 07:12:00,
2013-03-19 02:15:00,30.3,18.1,29.92,ENE,66,7.0,10.0,60,0.00,,---,0.00,0.00,VWS V14.01,2013-03-19 07:15:00,
2013-03-19 02:17:00,30.1,18.3,29.92,WSW,247,7.0,7.0,61,0.00,,---,0.00,0.00,VWS V14.01,2013-03-19 07:17:00,
2013-03-19 02:20:00,30.1,18.3,29.92,NNW,342,7.0,7.0,61,0.00,,---,0.00,0.00,VWS V14.01,2013-03-19 07:20:00,
2013-03-19 02:22:00,30.1,18.3,29.92,SSE,161,6.0,7.0,61,0.00,,---,0.00,0.00,VWS V14.01,2013-03-19 07:22:00,
2013-03-19 02:25:00,30.1,18.3,29.92,NE,56,5.0,7.0,61,0.00,,---,0.00,0.00,VWS V14.01,2013-03-19 07:25:00,
2013-03-19 02:28:00,30.1,18.3,29.92,SE,141,4.0,6.0,61,0.00,,---,0.00,0.00,VWS V14.01,2013-03-19 07:28:00,
2013-03-19 02:30:00,30.1,18.3,29.93,ENE,58,5.0,6.0,61,0.00,,---,0.00,0.00,VWS V14.01,2013-03-19 07:30:00,
2013-03-19 02:33:00,30.1,18.3,29.93,ENE,72,5.0,6.0,61,0.00,,---,0.00,0.00,VWS V14.01,2013-03-19 07:33:00,
2013-03-19 02:35:00,30.1,18.3,29.93,ENE,58,5.0,6.0,61,0.00,,---,0.00,0.00,VWS V14.01,2013-03-19 07:35:00,
2013-03-19 02:38:00,30.1,18.3,29.93,ENE,58,5.0,6.0,61,0.00,,---,0.00,0.00,VWS V14.01,2013-03-19 07:38:00,
2013-03-19 02:40:00,30.1,18.3,29.93,ENE,59,4.0,6.0,61,0.00,,---,0.00,0.00,VWS V14.01,2013-03-19 07:40:00,
2013-03-19 02:43:00,30.1,18.3,29.93,ESE,107,5.0,6.0,61,0.00,,---,0.00,0.00,VWS V14.01,2013-03-19 07:43:00,
2013-03-19 02:45:00,30.3,18.1,29.93,East,82,5.0,7.0,60,0.00,,---,0.00,0.00,VWS V14.01,2013-03-19 07:45:00,
2013-03-19 02:48:00,30.6,18.0,29.93,ENE,64,5.0,6.0,59,0.00,,---,0.00,0.00,VWS V14.01,2013-03-19 07:48:00,
2013-03-19 02:50:00,30.6,18.0,29.93,ENE,78,3.0,6.0,59,0.00,,---,0.00,0.00,VWS V14.01,2013-03-19 07:50:00,
2013-03-19 02:53:00,30.3,17.7,29.93,East,88,3.0,3.0,59,0.00,,---,0.00,0.00,VWS V14.01,2013-03-19 07:53:00,
2013-03-19 02:55:00,30.1,17.9,29.93,East,79,3.0,3.0,60,0.00,,---,0.00,0.00,VWS V14.01,2013-03-19 07:55:00,
2013-03-19 02:58:00,29.8,18.0,29.93,ENE,68,2.0,3.0,61,0.00,,---,0.00,0.00,VWS V14.01,2013-03-19 07:58:00,
2013-03-19 03:00:00,29.8,18.0,29.93,East,79,3.0,4.0,61,0.00,,---,0.00,0.00,VWS V14.01,2013-03-19 08:00:00,
2013-03-19 03:03:00,29.7,17.9,29.93,ESE,112,5.0,5.0,61,0.00,,---,0.00,0.00,VWS V14.01,2013-03-19 08:03:00,
2013-03-19 03:05:00,29.8,18.0,29.93,East,86,6.0,6.0,61,0.00,,---,0.00,0.00,VWS V14.01,2013-03-19 08:05:00,
2013-03-19 03:08:00,29.7,17.5,29.93,East,82,5.0,6.0,60,0.00,,---,0.00,0.00,VWS V14.01,2013-03-19 08:08:00,
2013-03-19 03:10:00,29.7,17.9,29.93,ESE,119,6.0,7.0,61,0.00,,---,0.00,0.00,VWS V14.01,2013-03-19 08:10:00,
2013-03-19 03:13:00,29.5,17.7,29.93,ENE,76,6.0,7.0,61,0.00,,---,0.00,0.00,VWS V14.01,2013-03-19 08:13:00,
2013-03-19 03:15:00,29.5,17.7,29.92,East,82,6.0,7.0,61,0.00,,---,0.00,0.00,VWS V14.01,2013-03-19 08:15:00,
2013-03-19 03:18:00,29.5,17.7,29.92,East,80,4.0,6.0,61,0.00,,---,0.00,0.00,VWS V14.01,2013-03-19 08:18:00,
2013-03-19 03:20:00,29.5,17.7,29.92,East,80,4.0,6.0,61,0.00,,---,0.00,0.00,VWS V14.01,2013-03-19 08:20:00,
2013-03-19 03:23:00,29.7,17.5,29.92,ENE,68,6.0,7.0,60,0.00,,---,0.00,0.00,VWS V14.01,2013-03-19 08:23:00,
2013-03-19 03:25:00,29.7,17.5,29.92,ENE,78,3.0,7.0,60,0.00,,---,0.00,0.00,VWS V14.01,2013-03-19 08:25:00,
2013-03-19 03:29:00,29.7,17.5,29.92,West,277,5.0,6.0,60,0.00,,---,0.00,0.00,VWS V14.01,2013-03-19 08:29:00,
2013-03-19 03:30:00,29.5,17.3,29.93,ENE,64,3.0,6.0,60,0.00,,---,0.00,0.00,VWS V14.01,2013-03-19 08:30:00,
2013-03-19 03:34:00,29.4,17.6,29.93,ENE,72,2.0,6.0,61,0.00,,---,0.00,0.00,VWS V14.01,2013-03-19 08:34:00,
2013-03-19 03:35:00,29.4,17.6,29.93,ENE,75,6.0,6.0,61,0.00,,---,0.00,0.00,VWS V14.01,2013-03-19 08:35:00,
2013-03-19 03:39:00,29.1,17.7,29.93,ENE,75,3.0,6.0,62,0.00,,---,0.00,0.00,VWS V14.01,2013-03-19 08:39:00,
2013-03-19 03:40:00,29.1,17.7,29.93,East,86,4.0,6.0,62,0.00,,---,0.00,0.00,VWS V14.01,2013-03-19 08:40:00,
2013-03-19 03:44:00,28.8,17.4,29.92,ENE,73,1.0,4.0,62,0.00,,---,0.00,0.00,VWS V14.01,2013-03-19 08:44:00,
2013-03-19 03:45:00,28.8,17.4,29.92,ENE,68,2.0,4.0,62,0.00,,---,0.00,0.00,VWS V14.01,2013-03-19 08:45:00,
2013-03-19 03:49:00,28.5,17.5,29.92,ENE,72,5.0,5.0,63,0.00,,---,0.00,0.00,VWS V14.01,2013-03-19 08:49:00,
2013-03-19 03:50:00,28.5,17.5,29.92,ENE,66,4.0,5.0,63,0.00,,---,0.00,0.00,VWS V14.01,2013-03-19 08:50:00,
2013-03-19 03:54:00,28.5,17.5,29.92,ESE,119,2.0,6.0,63,0.00,,---,0.00,0.00,VWS V14.01,2013-03-19 08:54:00,
2013-03-19 03:55:00,28.5,17.5,29.92,SE,136,2.0,6.0,63,0.00,,---,0.00,0.00,VWS V14.01,2013-03-19 08:55:00,
2013-03-19 03:59:00,28.7,17.3,29.93,WSW,243,3.0,3.0,62,0.00,,---,0.00,0.00,VWS V14.01,2013-03-19 08:59:00,
2013-03-19 04:00:00,28.7,17.3,29.93,SSE,157,3.0,3.0,62,0.00,,---,0.00,0.00,VWS V14.01,2013-03-19 09:00:00,
2013-03-19 04:04:00,29.1,17.3,29.93,South,178,5.0,6.0,61,0.00,,---,0.00,0.00,VWS V14.01,2013-03-19 09:04:00,
2013-03-19 04:05:00,29.1,17.3,29.93,ESE,106,6.0,6.0,61,0.00,,---,0.00,0.00,VWS V14.01,2013-03-19 09:05:00,
2013-03-19 04:10:00,30.0,17.0,29.93,ESE,104,3.0,6.0,58,0.00,,---,0.00,0.00,VWS V14.01,2013-03-19 09:10:00,
2013-03-19 04:15:00,30.3,17.7,29.94,ESE,123,5.0,6.0,59,0.00,,---,0.00,0.00,VWS V14.01,2013-03-19 09:15:00,
2013-03-19 04:20:00,30.6,17.2,29.94,East,79,5.0,6.0,57,0.00,,---,0.00,0.00,VWS V14.01,2013-03-19 09:20:00,
2013-03-19 04:25:00,30.7,17.3,29.94,ENE,62,5.0,5.0,57,0.00,,---,0.00,0.00,VWS V14.01,2013-03-19 09:25:00,
2013-03-19 04:30:00,30.4,17.4,29.94,ENE,58,5.0,5.0,58,0.00,,---,0.00,0.00,VWS V14.01,2013-03-19 09:30:00,
2013-03-19 04:35:00,29.7,17.5,29.94,East,83,3.0,5.0,60,0.00,,---,0.00,0.00,VWS V14.01,2013-03-19 09:35:00,
2013-03-19 04:40:00,29.4,17.6,29.94,ENE,58,2.0,3.0,61,0.00,,---,0.00,0.00,VWS V14.01,2013-03-19 09:40:00,
2013-03-19 04:45:00,29.1,17.3,29.94,ENE,75,3.0,3.0,61,0.00,,---,0.00,0.00,VWS V14.01,2013-03-19 09:45:00,
2013-03-19 04:50:00,29.0,17.6,29.94,ENE,69,4.0,5.0,62,0.00,,---,0.00,0.00,VWS V14.01,2013-03-19 09:50:00,
2013-03-19 04:55:00,29.1,17.3,29.94,East,90,6.0,6.0,61,0.00,,---,0.00,0.00,VWS V14.01,2013-03-19 09:55:00,
2013-03-19 05:00:00,29.4,16.9,29.93,East,97,5.0,7.0,59,0.00,,---,0.00,0.00,VWS V14.01,2013-03-19 10:00:00,
2013-03-19 05:01:00,29.4,16.9,29.93,East,92,6.0,6.0,59,0.00,,---,0.00,0.00,VWS V14.01,2013-03-19 10:01:00,
2013-03-19 05:05:00,29.5,16.6,29.93,SE,126,6.0,7.0,58,0.00,,---,0.00,0.00,VWS V14.01,2013-03-19 10:05:00,
2013-03-19 05:06:00,29.5,16.6,29.93,ESE,112,6.0,7.0,58,0.00,,---,0.00,0.00,VWS V14.01,2013-03-19 10:06:00,
2013-03-19 05:10:00,29.5,16.6,29.93,East,88,6.0,7.0,58,0.00,,---,0.00,0.00,VWS V14.01,2013-03-19 10:10:00,
2013-03-19 05:11:00,29.3,16.8,29.93,East,95,5.0,6.0,59,0.00,,---,0.00,0.00,VWS V14.01,2013-03-19 10:11:00,
2013-03-19 05:15:00,29.1,17.0,29.93,East,97,3.0,6.0,60,0.00,,---,0.00,0.00,VWS V14.01,2013-03-19 10:15:00,
2013-03-19 05:16:00,29.1,16.6,29.93,East,90,5.0,5.0,59,0.00,,---,0.00,0.00,VWS V14.01,2013-03-19 10:16:00,
2013-03-19 05:20:00,29.1,16.6,29.93,East,97,5.0,5.0,59,0.00,,---,0.00,0.00,VWS V14.01,2013-03-19 10:20:00,
2013-03-19 05:21:00,29.1,16.6,29.93,East,90,3.0,5.0,59,0.00,,---,0.00,0.00,VWS V14.01,2013-03-19 10:21:00,
2013-03-19 05:25:00,29.0,16.5,29.93,South,188,4.0,5.0,59,0.00,,---,0.00,0.00,VWS V14.01,2013-03-19 10:25:00,
2013-03-19 05:27:00,29.0,16.5,29.93,SE,127,5.0,5.0,59,0.00,,---,0.00,0.00,VWS V14.01,2013-03-19 10:27:00,
2013-03-19 05:30:00,29.0,16.1,29.93,ESE,106,6.0,6.0,58,0.00,,---,0.00,0.00,VWS V14.01,2013-03-19 10:30:00,
2013-03-19 05:32:00,28.8,15.9,29.93,SSE,165,7.0,7.0,58,0.00,,---,0.00,0.00,VWS V14.01,2013-03-19 10:32:00,
2013-03-19 05:35:00,28.8,15.9,29.93,SW,219,6.0,7.0,58,0.00,,---,0.00,0.00,VWS V14.01,2013-03-19 10:35:00,
2013-03-19 05:37:00,29.0,16.1,29.93,South,171,6.0,7.0,58,0.00,,---,0.00,0.00,VWS V14.01,2013-03-19 10:37:00,
2013-03-19 05:40:00,29.0,16.1,29.93,SE,134,6.0,7.0,58,0.00,,---,0.00,0.00,VWS V14.01,2013-03-19 10:40:00,
2013-03-19 05:42:00,29.0,16.1,29.93,South,176,4.0,6.0,58,0.00,,---,0.00,0.00,VWS V14.01,2013-03-19 10:42:00,
2013-03-19 05:45:00,29.1,15.8,29.95,SW,223,3.0,6.0,57,0.00,,---,0.00,0.00,VWS V14.01,2013-03-19 10:45:00,
2013-03-19 05:47:00,29.3,15.6,29.95,ESE,123,3.0,4.0,56,0.00,,---,0.00,0.00,VWS V14.01,2013-03-19 10:47:00,
2013-03-19 05:50:00,29.5,15.3,29.95,SSE,150,2.0,5.0,55,0.00,,---,0.00,0.00,VWS V14.01,2013-03-19 10:50:00,
2013-03-19 05:52:00,29.7,15.5,29.95,ESE,114,3.0,3.0,55,0.00,,---,0.00,0.00,VWS V14.01,2013-03-19 10:52:00,
2013-03-19 05:55:00,29.7,15.5,29.95,ESE,112,3.0,4.0,55,0.00,,---,0.00,0.00,VWS V14.01,2013-03-19 10:55:00,
2013-03-19 05:57:00,29.7,15.5,29.95,ESE,113,5.0,5.0,55,0.00,,---,0.00,0.00,VWS V14.01,2013-03-19 10:57:00,
2013-03-19 06:00:00,29.5,15.3,29.96,SE,143,3.0,5.0,55,0.00,,---,0.00,0.00,VWS V14.01,2013-03-19 11:00:00,
2013-03-19 06:02:00,29.3,15.6,29.96,SE,145,1.0,4.0,56,0.00,,---,0.00,0.00,VWS V14.01,2013-03-19 11:02:00,
2013-03-19 06:05:00,28.8,15.9,29.96,West,272,6.0,6.0,58,0.00,,---,0.00,0.00,VWS V14.01,2013-03-19 11:05:00,
2013-03-19 06:07:00,28.8,15.5,29.96,ESE,114,6.0,6.0,57,0.00,,---,0.00,0.00,VWS V14.01,2013-03-19 11:07:00,
2013-03-19 06:10:00,29.0,15.3,29.96,SE,124,6.0,6.0,56,0.00,,---,0.00,0.00,VWS V14.01,2013-03-19 11:10:00,
2013-03-19 06:12:00,29.1,15.4,29.96,ESE,109,5.0,6.0,56,0.00,,---,0.00,0.00,VWS V14.01,2013-03-19 11:12:00,
2013-03-19 06:15:00,29.3,15.6,29.95,ESE,112,5.0,6.0,56,0.00,,---,0.00,0.00,VWS V14.01,2013-03-19 11:15:00,
2013-03-19 06:18:00,29.3,16.0,29.95,WSW,244,5.0,7.0,57,0.00,,---,0.00,0.00,VWS V14.01,2013-03-19 11:18:00,
2013-03-19 06:20:00,29.3,15.6,29.95,SSE,160,3.0,7.0,56,0.00,,---,0.00,0.00,VWS V14.01,2013-03-19 11:20:00,
2013-03-19 06:23:00,29.0,15.7,29.95,SE,140,2.0,5.0,57,0.00,,---,0.00,0.00,VWS V14.01,2013-03-19 11:23:00,
2013-03-19 06:25:00,29.1,15.8,29.95,South,178,5.0,8.0,57,0.00,,---,0.00,0.00,VWS V14.01,2013-03-19 11:25:00,
2013-03-19 06:28:00,29.4,15.7,29.95,SE,134,7.0,10.0,56,0.00,,---,0.00,0.00,VWS V14.01,2013-03-19 11:28:00,
2013-03-19 06:30:00,29.7,15.5,29.96,West,260,6.0,10.0,55,0.00,,---,0.00,0.00,VWS V14.01,2013-03-19 11:30:00,
2013-03-19 06:33:00,30.0,15.8,29.96,NW,308,8.0,9.0,55,0.00,,---,0.00,0.00,VWS V14.01,2013-03-19 11:33:00,
2013-03-19 06:35:00,30.1,15.5,29.96,SSW,198,8.0,9.0,54,0.00,,---,0.00,0.00,VWS V14.01,2013-03-19 11:35:00,
2013-03-19 06:38:00,30.1,15.5,29.96,SW,226,8.0,8.0,54,0.00,,---,0.00,0.00,VWS V14.01,2013-03-19 11:38:00,
2013-03-19 06:40:00,30.0,15.8,29.96,NNW,332,10.0,10.0,55,0.00,,---,0.00,0.00,VWS V14.01,2013-03-19 11:40:00,
2013-03-19 06:43:00,29.7,15.9,29.96,South,176,1.0,10.0,56,0.00,,---,0.00,0.00,VWS V14.01,2013-03-19 11:43:00,
2013-03-19 06:45:00,29.5,15.8,29.96,South,179,3.0,10.0,56,0.00,,---,0.00,0.00,VWS V14.01,2013-03-19 11:45:00,
2013-03-19 06:48:00,29.3,16.0,29.96,SE,137,7.0,8.0,57,0.00,,---,0.00,0.00,VWS V14.01,2013-03-19 11:48:00,
2013-03-19 06:50:00,29.4,16.1,29.96,SSW,199,7.0,8.0,57,0.00,,---,0.00,0.00,VWS V14.01,2013-03-19 11:50:00,
2013-03-19 06:53:00,29.4,15.7,29.96,SE,145,7.0,8.0,56,0.00,,---,0.00,0.00,VWS V14.01,2013-03-19 11:53:00,
2013-03-19 06:55:00,29.4,15.7,29.96,SE,133,7.0,8.0,56,0.00,,---,0.00,0.00,VWS V14.01,2013-03-19 11:55:00,
2013-03-19 06:58:00,29.4,15.7,29.96,SE,131,6.0,7.0,56,0.00,,---,0.00,0.00,VWS V14.01,2013-03-19 11:58:00,
2013-03-19 07:00:00,29.4,15.7,29.96,SE,140,6.0,7.0,56,0.00,,---,0.00,0.00,VWS V14.01,2013-03-19 12:00:00,
2013-03-19 07:04:00,29.0,16.1,29.96,WNW,285,8.0,8.0,58,0.00,,---,0.00,0.00,VWS V14.01,2013-03-19 12:04:00,
2013-03-19 07:05:00,29.0,16.1,29.96,West,264,7.0,8.0,58,0.00,,---,0.00,0.00,VWS V14.01,2013-03-19 12:05:00,
2013-03-19 07:09:00,29.0,16.1,29.96,SE,141,8.0,10.0,58,0.00,,---,0.00,0.00,VWS V14.01,2013-03-19 12:09:00,
2013-03-19 07:10:00,29.0,16.1,29.96,SW,216,8.0,10.0,58,0.00,,---,0.00,0.00,VWS V14.01,2013-03-19 12:10:00,
2013-03-19 07:14:00,29.1,15.8,29.96,South,182,10.0,10.0,57,0.00,,---,0.00,0.00,VWS V14.01,2013-03-19 12:14:00,
2013-03-19 07:15:00,29.1,15.8,29.97,SW,215,8.0,10.0,57,0.00,,---,0.00,0.00,VWS V14.01,2013-03-19 12:15:00,
2013-03-19 07:19:00,29.1,16.2,29.97,SW,229,10.0,11.0,58,0.00,,---,0.00,0.00,VWS V14.01,2013-03-19 12:19:00,
2013-03-19 07:20:00,29.1,16.2,29.97,SW,224,10.0,11.0,58,0.00,,---,0.00,0.00,VWS V14.01,2013-03-19 12:20:00,
2013-03-19 07:24:00,29.1,16.2,29.97,SSE,147,6.0,11.0,58,0.00,,---,0.00,0.00,VWS V14.01,2013-03-19 12:24:00,
2013-03-19 07:25:00,29.1,16.2,29.97,SE,138,7.0,11.0,58,0.00,,---,0.00,0.00,VWS V14.01,2013-03-19 12:25:00,
2013-03-19 07:29:00,29.0,16.5,29.98,SE,138,6.0,8.0,59,0.00,,---,0.00,0.00,VWS V14.01,2013-03-19 12:29:00,
2013-03-19 07:30:00,29.0,16.5,29.98,SE,141,7.0,8.0,59,0.00,,---,0.00,0.00,VWS V14.01,2013-03-19 12:30:00,
2013-03-19 07:34:00,29.1,16.6,29.98,SE,128,6.0,8.0,59,0.00,,---,0.00,0.00,VWS V14.01,2013-03-19 12:34:00,
2013-03-19 07:35:00,29.1,16.2,29.98,SE,144,5.0,8.0,58,0.00,,---,0.00,0.00,VWS V14.01,2013-03-19 12:35:00,
2013-03-19 07:39:00,29.1,16.6,29.98,South,172,3.0,8.0,59,0.00,,---,0.00,0.00,VWS V14.01,2013-03-19 12:39:00,
2013-03-19 07:40:00,29.1,16.6,29.98,SE,141,2.0,8.0,59,0.00,,---,0.00,0.00,VWS V14.01,2013-03-19 12:40:00,
2013-03-19 07:45:00,29.3,16.8,29.98,SSE,162,3.0,6.0,59,0.00,,---,0.00,0.00,VWS V14.01,2013-03-19 12:45:00,
2013-03-19 07:50:00,29.5,17.0,29.98,SW,229,3.0,5.0,59,0.00,,---,0.00,7.00,VWS V14.01,2013-03-19 12:50:00,
2013-03-19 07:55:00,29.7,16.8,29.98,SW,219,3.0,5.0,58,0.00,,---,0.00,16.00,VWS V14.01,2013-03-19 12:55:00,
2013-03-19 08:00:00,29.8,17.2,29.97,WNW,296,5.0,8.0,59,0.00,,---,0.00,16.00,VWS V14.01,2013-03-19 13:00:00,
2013-03-19 08:05:00,30.0,17.4,29.97,SE,144,2.0,4.0,59,0.00,,---,0.00,23.00,VWS V14.01,2013-03-19 13:05:00,
2013-03-19 08:10:00,30.1,17.9,29.97,SSE,152,2.0,4.0,60,0.00,,---,0.00,18.00,VWS V14.01,2013-03-19 13:10:00,
2013-03-19 08:15:00,30.3,18.1,29.98,ESE,119,3.0,6.0,60,0.00,,---,0.00,25.00,VWS V14.01,2013-03-19 13:15:00,
2013-03-19 08:20:00,30.6,18.4,29.98,SE,145,4.0,6.0,60,0.00,,---,0.00,35.00,VWS V14.01,2013-03-19 13:20:00,
2013-03-19 08:25:00,30.7,18.5,29.98,SSE,164,5.0,5.0,60,0.00,,---,0.00,33.00,VWS V14.01,2013-03-19 13:25:00,
2013-03-19 08:30:00,31.0,18.8,29.98,SSE,151,4.0,6.0,60,0.00,,---,0.00,49.00,VWS V14.01,2013-03-19 13:30:00,
2013-03-19 08:35:00,31.5,19.2,29.98,SSE,151,2.0,3.0,60,0.00,,---,0.00,30.00,VWS V14.01,2013-03-19 13:35:00,
2013-03-19 08:40:00,31.6,19.3,29.98,SSE,155,5.0,5.0,60,0.00,,---,0.00,56.00,VWS V14.01,2013-03-19 13:40:00,
2013-03-19 08:45:00,31.8,19.1,29.99,SSE,155,5.0,6.0,59,0.00,,---,0.00,70.00,VWS V14.01,2013-03-19 13:45:00,
2013-03-19 08:46:00,31.8,19.1,29.99,SSE,160,6.0,6.0,59,0.00,,---,0.00,58.00,VWS V14.01,2013-03-19 13:46:00,
2013-03-19 08:50:00,32.1,19.4,29.99,WSW,256,4.0,6.0,59,0.00,,---,0.00,67.00,VWS V14.01,2013-03-19 13:50:00,
2013-03-19 08:51:00,32.1,19.4,29.99,South,178,4.0,7.0,59,0.00,,---,0.00,91.00,VWS V14.01,2013-03-19 13:51:00,
2013-03-19 08:55:00,32.4,19.7,29.99,SSE,158,1.0,7.0,59,0.00,,---,0.00,77.00,VWS V14.01,2013-03-19 13:55:00,
2013-03-19 08:56:00,32.5,19.8,29.99,SW,215,3.0,7.0,59,0.00,,---,0.00,67.00,VWS V14.01,2013-03-19 13:56:00,
2013-03-19 09:00:00,32.8,20.1,29.99,SE,141,6.0,7.0,59,0.00,,---,0.00,90.00,VWS V14.01,2013-03-19 14:00:00,
2013-03-19 09:01:00,32.9,20.2,29.99,SE,137,5.0,7.0,59,0.00,,---,0.00,106.00,VWS V14.01,2013-03-19 14:01:00,
2013-03-19 09:05:00,33.1,19.9,29.99,West,263,6.0,7.0,58,0.00,,---,0.00,106.00,VWS V14.01,2013-03-19 14:05:00,
2013-03-19 09:06:00,33.2,20.0,29.99,SSE,162,5.0,7.0,58,0.00,,---,0.00,114.00,VWS V14.01,2013-03-19 14:06:00,
2013-03-19 09:10:00,33.5,19.9,29.99,SSE,157,7.0,8.0,57,0.00,,---,0.00,99.00,VWS V14.01,2013-03-19 14:10:00,
2013-03-19 09:11:00,33.7,20.1,29.99,South,182,5.0,7.0,57,0.00,,---,0.00,111.00,VWS V14.01,2013-03-19 14:11:00,
2013-03-19 09:15:00,34.0,20.0,29.99,SSE,160,4.0,7.0,56,0.00,,---,0.00,86.00,VWS V14.01,2013-03-19 14:15:00,
2013-03-19 09:16:00,34.0,20.0,29.99,SSE,147,6.0,7.0,56,0.00,,---,0.00,81.00,VWS V14.01,2013-03-19 14:16:00,
2013-03-19 09:20:00,34.1,20.1,29.99,SSE,161,5.0,9.0,56,0.00,,---,0.00,95.00,VWS V14.01,2013-03-19 14:20:00,
2013-03-19 09:21:00,34.3,20.2,29.99,West,260,8.0,8.0,56,0.00,,---,0.00,95.00,VWS V14.01,2013-03-19 14:21:00,
2013-03-19 09:25:00,34.4,19.9,29.99,South,176,6.0,8.0,55,0.00,,---,0.00,225.00,VWS V14.01,2013-03-19 14:25:00,
2013-03-19 09:27:00,34.7,20.2,29.99,SSW,193,7.0,8.0,55,0.00,,---,0.00,278.00,VWS V14.01,2013-03-19 14:27:00,
2013-03-19 09:30:00,35.3,20.3,30.00,SSW,206,6.0,11.0,54,0.00,,---,0.00,310.00,VWS V14.01,2013-03-19 14:30:00,
2013-03-19 09:32:00,35.6,20.2,30.00,SSE,155,5.0,8.0,53,0.00,,---,0.00,188.00,VWS V14.01,2013-03-19 14:32:00,
2013-03-19 09:35:00,35.8,19.9,30.00,SSE,165,6.0,10.0,52,0.00,,---,0.00,130.00,VWS V14.01,2013-03-19 14:35:00,
2013-03-19 09:37:00,35.8,19.5,30.00,South,176,7.0,13.0,51,0.00,,---,0.00,135.00,VWS V14.01,2013-03-19 14:37:00,
2013-03-19 09:40:00,35.6,19.3,30.00,SSE,148,5.0,13.0,51,0.00,,---,0.00,167.00,VWS V14.01,2013-03-19 14:40:00,
2013-03-19 09:42:00,35.8,19.5,30.00,SSE,151,5.0,13.0,51,0.00,,---,0.00,176.00,VWS V14.01,2013-03-19 14:42:00,
2013-03-19 09:45:00,35.8,19.9,29.99,SSE,150,7.0,13.0,52,0.00,,---,0.00,167.00,VWS V14.01,2013-03-19 14:45:00,
2013-03-19 09:50:00,36.2,19.8,29.99,SSE,158,8.0,13.0,51,0.00,,---,0.00,168.00,VWS V14.01,2013-03-19 14:50:00,
2013-03-19 09:55:00,36.5,20.1,29.99,SSE,158,7.0,11.0,51,0.00,,---,0.00,174.00,VWS V14.01,2013-03-19 14:55:00,
2013-03-19 10:00:00,37.0,20.6,29.99,SSE,158,7.0,11.0,51,0.00,,---,0.00,192.00,VWS V14.01,2013-03-19 15:00:00,
2013-03-19 10:05:00,37.5,21.0,29.99,SSE,158,7.0,12.0,51,0.00,,---,0.00,195.00,VWS V14.01,2013-03-19 15:05:00,
2013-03-19 10:10:00,37.8,21.3,29.99,SSE,158,8.0,15.0,51,0.00,,---,0.00,221.00,VWS V14.01,2013-03-19 15:10:00,
2013-03-19 10:15:00,38.2,21.7,29.99,South,180,10.0,16.0,51,0.00,,---,0.00,205.00,VWS V14.01,2013-03-19 15:15:00,
2013-03-19 10:20:00,38.8,22.2,29.99,SSE,158,8.0,13.0,51,0.00,,---,0.00,197.00,VWS V14.01,2013-03-19 15:20:00,
2013-03-19 10:25:00,39.2,22.1,29.99,SE,135,11.0,16.0,50,0.00,,---,0.00,380.00,VWS V14.01,2013-03-19 15:25:00,
2013-03-19 10:30:00,40.2,23.1,29.99,SSE,158,8.0,13.0,50,0.00,,---,0.00,431.00,VWS V14.01,2013-03-19 15:30:00,
2013-03-19 10:35:00,40.3,23.1,29.99,SSE,158,9.0,16.0,50,0.00,,---,0.00,323.00,VWS V14.01,2013-03-19 15:35:00,
2013-03-19 10:40:00,41.5,24.3,29.99,South,180,8.0,13.0,50,0.00,,---,0.00,541.00,VWS V14.01,2013-03-19 15:40:00,
2013-03-19 10:45:00,41.9,24.1,30.00,SSE,158,9.0,14.0,49,0.00,,---,0.00,226.00,VWS V14.01,2013-03-19 15:45:00,
2013-03-19 10:50:00,41.6,23.9,30.00,SSE,158,8.0,13.0,49,0.00,,---,0.00,230.00,VWS V14.01,2013-03-19 15:50:00,
2013-03-19 10:55:00,41.6,24.4,30.00,SSE,158,7.0,12.0,50,0.00,,---,0.00,244.00,VWS V14.01,2013-03-19 15:55:00,
2013-03-19 11:00:00,41.6,23.9,30.02,SSE,158,7.0,12.0,49,0.00,,---,0.00,206.00,VWS V14.01,2013-03-19 16:00:00,
2013-03-19 11:05:00,41.8,24.5,30.02,ESE,112,6.0,8.0,50,0.00,,---,0.00,172.00,VWS V14.01,2013-03-19 16:05:00,
2013-03-19 11:10:00,41.9,24.1,30.02,SE,135,5.0,11.0,49,0.00,,---,0.00,182.00,VWS V14.01,2013-03-19 16:10:00,
2013-03-19 11:15:00,41.8,24.5,30.04,ESE,112,6.0,10.0,50,0.00,,---,0.00,171.00,VWS V14.01,2013-03-19 16:15:00,
2013-03-19 11:20:00,41.6,24.4,30.04,ESE,112,4.0,7.0,50,0.00,,---,0.00,161.00,VWS V14.01,2013-03-19 16:20:00,
2013-03-19 11:25:00,41.6,24.4,30.04,East,90,3.0,6.0,50,0.00,,---,0.00,146.00,VWS V14.01,2013-03-19 16:25:00,
2013-03-19 11:30:00,41.6,23.9,30.04,ESE,112,4.0,6.0,49,0.00,,---,0.00,140.00,VWS V14.01,2013-03-19 16:30:00,
2013-03-19 11:35:00,41.6,24.8,30.04,ESE,112,3.0,7.0,51,0.00,,---,0.00,118.00,VWS V14.01,2013-03-19 16:35:00,
2013-03-19 11:40:00,41.6,24.8,30.04,ENE,68,3.0,5.0,51,0.00,,---,0.00,102.00,VWS V14.01,2013-03-19 16:40:00,
2013-03-19 11:45:00,41.6,24.4,30.04,ESE,112,6.0,8.0,50,0.00,,---,0.00,126.00,VWS V14.01,2013-03-19 16:45:00,
2013-03-19 11:50:00,41.8,25.0,30.04,ESE,112,5.0,7.0,51,0.00,,---,0.00,143.00,VWS V14.01,2013-03-19 16:50:00,
2013-03-19 11:55:00,41.8,25.0,30.04,East,90,5.0,6.0,51,0.00,,---,0.00,137.00,VWS V14.01,2013-03-19 16:55:00,
2013-03-19 12:00:00,41.8,24.5,30.04,East,90,5.0,6.0,50,0.00,,---,0.00,158.00,VWS V14.01,2013-03-19 17:00:00,
2013-03-19 12:05:00,41.9,24.6,30.04,ESE,112,3.0,6.0,50,0.00,,---,0.00,213.00,VWS V14.01,2013-03-19 17:05:00,
2013-03-19 12:10:00,42.1,24.3,30.04,ESE,112,6.0,8.0,49,0.00,,---,0.00,350.00,VWS V14.01,2013-03-19 17:10:00,
2013-03-19 12:15:00,42.3,24.5,30.05,East,90,6.0,10.0,49,0.00,,---,0.00,350.00,VWS V14.01,2013-03-19 17:15:00,
2013-03-19 12:20:00,42.3,24.0,30.05,East,90,7.0,10.0,48,0.00,,---,0.00,291.00,VWS V14.01,2013-03-19 17:20:00,
2013-03-19 12:25:00,42.3,25.0,30.05,ENE,68,7.0,10.0,50,0.00,,---,0.00,265.00,VWS V14.01,2013-03-19 17:25:00,
2013-03-19 12:30:00,42.6,24.3,30.05,East,90,4.0,7.0,48,0.00,,---,0.00,250.00,VWS V14.01,2013-03-19 17:30:00,
2013-03-19 12:35:00,43.1,24.8,30.05,East,90,6.0,8.0,48,0.00,,---,0.00,250.00,VWS V14.01,2013-03-19 17:35:00,
2013-03-19 12:40:00,43.6,24.7,30.05,ESE,112,6.0,10.0,47,0.00,,---,0.00,552.00,VWS V14.01,2013-03-19 17:40:00,
2013-03-19 12:45:00,44.2,24.8,30.05,ESE,112,4.0,8.0,46,0.00,,---,0.00,552.00,VWS V14.01,2013-03-19 17:45:00,
2013-03-19 12:50:00,44.1,25.2,30.05,ENE,68,5.0,7.0,47,0.00,,---,0.00,456.00,VWS V14.01,2013-03-19 17:50:00,
2013-03-19 12:55:00,44.3,25.4,30.05,ESE,112,6.0,8.0,47,0.00,,---,0.00,491.00,VWS V14.01,2013-03-19 17:55:00,
2013-03-19 13:00:00,44.2,26.3,30.05,East,90,6.0,12.0,49,0.00,,---,0.00,437.00,VWS V14.01,2013-03-19 18:00:00,
2013-03-19 13:05:00,44.3,26.4,30.05,ESE,112,6.0,11.0,49,0.00,,---,0.00,500.00,VWS V14.01,2013-03-19 18:05:00,
2013-03-19 13:10:00,44.6,26.1,30.05,ENE,68,6.0,10.0,48,0.00,,---,0.00,486.00,VWS V14.01,2013-03-19 18:10:00,
2013-03-19 13:15:00,45.1,27.1,30.06,ENE,68,7.0,11.0,49,0.00,,---,0.00,486.00,VWS V14.01,2013-03-19 18:15:00,
2013-03-19 13:20:00,44.6,27.1,30.06,ENE,68,10.0,12.0,50,0.00,,---,0.00,413.00,VWS V14.01,2013-03-19 18:20:00,
2013-03-19 13:25:00,44.5,27.5,30.06,ENE,68,6.0,11.0,51,0.00,,---,0.00,530.00,VWS V14.01,2013-03-19 18:25:00,
2013-03-19 13:30:00,44.8,27.3,30.06,ENE,68,3.0,9.0,50,0.00,,---,0.00,397.00,VWS V14.01,2013-03-19 18:30:00,
2013-03-19 13:35:00,44.8,26.8,30.06,ENE,68,7.0,12.0,49,0.00,,---,0.00,387.00,VWS V14.01,2013-03-19 18:35:00,
2013-03-19 13:40:00,44.2,26.8,30.06,East,90,6.0,10.0,50,0.00,,---,0.00,323.00,VWS V14.01,2013-03-19 18:40:00,
2013-03-19 13:45:00,44.2,26.3,30.07,ENE,68,4.0,7.0,49,0.00,,---,0.00,350.00,VWS V14.01,2013-03-19 18:45:00,
2013-03-19 13:50:00,44.3,26.9,30.07,East,90,0.0,7.0,50,0.00,,---,0.00,385.00,VWS V14.01,2013-03-19 18:50:00,
2013-03-19 13:55:00,44.6,27.1,30.07,ENE,68,4.0,6.0,50,0.00,,---,0.00,384.00,VWS V14.01,2013-03-19 18:55:00,
2013-03-19 14:00:00,44.8,26.8,30.07,ESE,112,5.0,7.0,49,0.00,,---,0.00,209.00,VWS V14.01,2013-03-19 19:00:00,
2013-03-19 14:05:00,44.3,26.9,30.07,East,90,5.0,8.0,50,0.00,,---,0.00,199.00,VWS V14.01,2013-03-19 19:05:00,
2013-03-19 14:10:00,43.9,26.5,30.07,East,90,11.0,14.0,50,0.00,,---,0.00,197.00,VWS V14.01,2013-03-19 19:10:00,
2013-03-19 14:15:00,43.3,27.3,30.07,ENE,68,9.0,13.0,53,0.00,,---,0.00,211.00,VWS V14.01,2013-03-19 19:15:00,
2013-03-19 14:20:00,43.2,27.2,30.07,NE,45,10.0,14.0,53,0.00,,---,0.00,223.00,VWS V14.01,2013-03-19 19:20:00,
2013-03-19 14:25:00,43.3,27.8,30.07,ENE,68,9.0,13.0,54,0.00,,---,0.00,310.00,VWS V14.01,2013-03-19 19:25:00,
2013-03-19 14:30:00,43.5,28.4,30.06,NE,45,9.0,11.0,55,0.00,,---,0.00,320.00,VWS V14.01,2013-03-19 19:30:00,
2013-03-19 14:35:00,43.5,28.0,30.06,NE,45,9.0,12.0,54,0.00,,---,0.00,321.00,VWS V14.01,2013-03-19 19:35:00,
2013-03-19 14:40:00,43.6,28.1,30.06,East,90,8.0,12.0,54,0.00,,---,0.00,362.00,VWS V14.01,2013-03-19 19:40:00,
2013-03-19 14:45:00,44.1,28.5,30.06,NE,45,9.0,13.0,54,0.00,,---,0.00,362.00,VWS V14.01,2013-03-19 19:45:00,
2013-03-19 14:50:00,44.3,28.3,30.06,ENE,68,11.0,13.0,53,0.00,,---,0.00,494.00,VWS V14.01,2013-03-19 19:50:00,
2013-03-19 14:55:00,44.8,28.7,30.06,ENE,68,10.0,12.0,53,0.00,,---,0.00,494.00,VWS V14.01,2013-03-19 19:55:00,
2013-03-19 15:00:00,44.5,28.0,30.06,ENE,68,9.0,13.0,52,0.00,,---,0.00,494.00,VWS V14.01,2013-03-19 20:00:00,
2013-03-19 15:05:00,44.5,28.0,30.06,ENE,68,10.0,13.0,52,0.00,,---,0.00,494.00,VWS V14.01,2013-03-19 20:05:00,
2013-03-19 15:10:00,44.6,28.1,30.06,ENE,68,7.0,12.0,52,0.00,,---,0.00,831.00,VWS V14.01,2013-03-19 20:10:00,
2013-03-19 15:15:00,45.5,28.4,30.05,ENE,68,7.0,11.0,51,0.00,,---,0.00,823.00,VWS V14.01,2013-03-19 20:15:00,
2013-03-19 15:20:00,45.8,29.2,30.05,NNE,22,11.0,16.0,52,0.00,,---,0.00,591.00,VWS V14.01,2013-03-19 20:20:00,
2013-03-19 15:25:00,45.1,28.5,30.05,NE,45,10.0,17.0,52,0.00,,---,0.00,336.00,VWS V14.01,2013-03-19 20:25:00,
2013-03-19 15:30:00,45.1,28.5,30.05,ENE,68,10.0,13.0,52,0.00,,---,0.00,334.00,VWS V14.01,2013-03-19 20:30:00,
2013-03-19 15:35:00,45.1,28.5,30.05,ENE,68,8.0,13.0,52,0.00,,---,0.00,744.00,VWS V14.01,2013-03-19 20:35:00,
2013-03-19 15:40:00,45.7,28.6,30.05,ENE,68,6.0,14.0,51,0.00,,---,0.00,720.00,VWS V14.01,2013-03-19 20:40:00,
2013-03-19 15:45:00,45.7,28.6,30.04,ENE,68,6.0,9.0,51,0.00,,---,0.00,677.00,VWS V14.01,2013-03-19 20:45:00,
2013-03-19 15:50:00,46.1,29.5,30.04,NE,45,7.0,11.0,52,0.00,,---,0.00,686.00,VWS V14.01,2013-03-19 20:50:00,
2013-03-19 15:55:00,46.1,29.0,30.04,NE,45,6.0,10.0,51,0.00,,---,0.00,620.00,VWS V14.01,2013-03-19 20:55:00,
2013-03-19 16:00:00,46.1,29.5,30.03,ENE,68,8.0,13.0,52,0.00,,---,0.00,616.00,VWS V14.01,2013-03-19 21:00:00,
2013-03-19 16:05:00,46.1,29.9,30.03,ENE,68,11.0,13.0,53,0.00,,---,0.00,605.00,VWS V14.01,2013-03-19 21:05:00,
2013-03-19 16:10:00,46.0,29.8,30.03,NE,45,10.0,12.0,53,0.00,,---,0.00,605.00,VWS V14.01,2013-03-19 21:10:00,
2013-03-19 16:15:00,46.0,29.4,30.04,ENE,68,7.0,13.0,52,0.00,,---,0.00,482.00,VWS V14.01,2013-03-19 21:15:00,
2013-03-19 16:20:00,46.1,29.5,30.04,ENE,68,6.0,8.0,52,0.00,,---,0.00,496.00,VWS V14.01,2013-03-19 21:20:00,
2013-03-19 16:25:00,45.8,29.2,30.04,NE,45,6.0,9.0,52,0.00,,---,0.00,496.00,VWS V14.01,2013-03-19 21:25:00,
2013-03-19 16:30:00,46.1,29.5,30.03,ESE,112,5.0,8.0,52,0.00,,---,0.00,561.00,VWS V14.01,2013-03-19 21:30:00,
2013-03-19 16:35:00,46.2,29.1,30.03,ENE,68,4.0,7.0,51,0.00,,---,0.00,561.00,VWS V14.01,2013-03-19 21:35:00,
2013-03-19 16:40:00,46.1,29.5,30.03,NE,45,5.0,8.0,52,0.00,,---,0.00,387.00,VWS V14.01,2013-03-19 21:40:00,
2013-03-19 16:45:00,46.4,29.8,30.03,ENE,68,3.0,7.0,52,0.00,,---,0.00,368.00,VWS V14.01,2013-03-19 21:45:00,
2013-03-19 16:50:00,46.2,28.6,30.03,ENE,68,6.0,10.0,50,0.00,,---,0.00,454.00,VWS V14.01,2013-03-19 21:50:00,
2013-03-19 16:55:00,46.4,29.8,30.03,East,90,5.0,7.0,52,0.00,,---,0.00,404.00,VWS V14.01,2013-03-19 21:55:00,
2013-03-19 17:00:00,46.5,29.8,30.03,East,90,5.0,7.0,52,0.00,,---,0.00,371.00,VWS V14.01,2013-03-19 22:00:00,
2013-03-19 17:05:00,46.7,29.5,30.03,ESE,112,3.0,6.0,51,0.00,,---,0.00,371.00,VWS V14.01,2013-03-19 22:05:00,
2013-03-19 17:10:00,46.8,29.2,30.03,East,90,3.0,6.0,50,0.00,,---,0.00,284.00,VWS V14.01,2013-03-19 22:10:00,
2013-03-19 17:15:00,46.8,29.2,30.04,ENE,68,3.0,6.0,50,0.00,,---,0.00,271.00,VWS V14.01,2013-03-19 22:15:00,
2013-03-19 17:20:00,46.7,29.1,30.04,ESE,112,5.0,6.0,50,0.00,,---,0.00,264.00,VWS V14.01,2013-03-19 22:20:00,
2013-03-19 17:25:00,46.8,29.2,30.04,ESE,112,2.0,6.0,50,0.00,,---,0.00,302.00,VWS V14.01,2013-03-19 22:25:00,
2013-03-19 17:30:00,46.7,29.5,30.03,NE,45,5.0,8.0,51,0.00,,---,0.00,301.00,VWS V14.01,2013-03-19 22:30:00,
2013-03-19 17:35:00,46.5,29.8,30.03,NE,45,3.0,7.0,52,0.00,,---,0.00,288.00,VWS V14.01,2013-03-19 22:35:00,
2013-03-19 17:40:00,46.5,29.8,30.03,ENE,68,3.0,5.0,52,0.00,,---,0.00,273.00,VWS V14.01,2013-03-19 22:40:00,
2013-03-19 17:45:00,46.5,29.8,30.04,ENE,68,3.0,7.0,52,0.00,,---,0.00,272.00,VWS V14.01,2013-03-19 22:45:00,
2013-03-19 17:50:00,46.4,29.8,30.04,ENE,68,6.0,8.0,52,0.00,,---,0.00,230.00,VWS V14.01,2013-03-19 22:50:00,
2013-03-19 17:55:00,46.4,30.2,30.04,ENE,68,5.0,7.0,53,0.00,,---,0.00,248.00,VWS V14.01,2013-03-19 22:55:00,
2013-03-19 18:00:00,46.4,30.2,30.04,East,90,5.0,7.0,53,0.00,,---,0.00,250.00,VWS V14.01,2013-03-19 23:00:00,
2013-03-19 18:05:00,46.2,30.9,30.04,ENE,68,6.0,8.0,55,0.00,,---,0.00,250.00,VWS V14.01,2013-03-19 23:05:00,
2013-03-19 18:10:00,46.0,31.2,30.04,ENE,68,4.0,7.0,56,0.00,,---,0.00,203.00,VWS V14.01,2013-03-19 23:10:00,
2013-03-19 18:15:00,46.1,31.7,30.04,ENE,68,6.0,7.0,57,0.00,,---,0.00,198.00,VWS V14.01,2013-03-19 23:15:00,
2013-03-19 18:20:00,45.7,31.4,30.04,ENE,68,7.0,8.0,57,0.00,,---,0.00,234.00,VWS V14.01,2013-03-19 23:20:00,
2013-03-19 18:25:00,45.5,32.4,30.04,ENE,68,7.0,10.0,60,0.00,,---,0.00,192.00,VWS V14.01,2013-03-19 23:25:00,
2013-03-19 18:30:00,45.4,31.9,30.04,East,90,5.0,8.0,59,0.00,,---,0.00,170.00,VWS V14.01,2013-03-19 23:30:00,
2013-03-19 18:35:00,45.5,31.6,30.04,ENE,68,4.0,5.0,58,0.00,,---,0.00,157.00,VWS V14.01,2013-03-19 23:35:00,
2013-03-19 18:40:00,45.7,31.8,30.04,East,90,2.0,4.0,58,0.00,,---,0.00,131.00,VWS V14.01,2013-03-19 23:40:00,
2013-03-19 18:45:00,45.7,32.2,30.04,East,90,2.0,5.0,59,0.00,,---,0.00,115.00,VWS V14.01,2013-03-19 23:45:00,
2013-03-19 18:50:00,45.4,32.3,30.04,ENE,68,4.0,6.0,60,0.00,,---,0.00,83.00,VWS V14.01,2013-03-19 23:50:00,
2013-03-19 18:55:00,45.1,32.5,30.04,East,90,4.0,6.0,61,0.00,,---,0.00,84.00,VWS V14.01,2013-03-19 23:55:00,
2013-03-19 19:00:00,45.1,32.1,30.04,East,90,2.0,4.0,60,0.00,,---,0.00,83.00,VWS V14.01,2013-03-20 00:00:00,
2013-03-19 19:05:00,44.9,32.3,30.04,East,90,2.0,3.0,61,0.00,,---,0.00,67.00,VWS V14.01,2013-03-20 00:05:00,
2013-03-19 19:10:00,44.9,32.3,30.04,East,90,2.0,5.0,61,0.00,,---,0.00,57.00,VWS V14.01,2013-03-20 00:10:00,
2013-03-19 19:15:00,44.6,32.0,30.05,East,90,4.0,6.0,61,0.00,,---,0.00,43.00,VWS V14.01,2013-03-20 00:15:00,
2013-03-19 19:20:00,44.2,32.0,30.05,East,90,4.0,6.0,62,0.00,,---,0.00,30.00,VWS V14.01,2013-03-20 00:20:00,
2013-03-19 19:25:00,43.8,31.6,30.05,East,90,2.0,5.0,62,0.00,,---,0.00,18.00,VWS V14.01,2013-03-20 00:25:00,
2013-03-19 19:30:00,43.3,32.0,30.05,East,90,2.0,3.0,64,0.00,,---,0.00,9.00,VWS V14.01,2013-03-20 00:30:00,
2013-03-19 19:35:00,43.1,32.2,30.05,East,90,2.0,3.0,65,0.00,,---,0.00,7.00,VWS V14.01,2013-03-20 00:35:00,
2013-03-19 19:40:00,42.8,32.2,30.05,East,90,2.0,3.0,66,0.00,,---,0.00,0.00,VWS V14.01,2013-03-20 00:40:00,
2013-03-19 19:45:00,42.5,32.0,30.06,East,90,2.0,4.0,66,0.00,,---,0.00,0.00,VWS V14.01,2013-03-20 00:45:00,
2013-03-19 19:50:00,42.1,32.0,30.06,East,90,3.0,5.0,67,0.00,,---,0.00,0.00,VWS V14.01,2013-03-20 00:50:00,
2013-03-19 19:55:00,41.8,31.7,30.06,East,90,3.0,5.0,67,0.00,,---,0.00,0.00,VWS V14.01,2013-03-20 00:55:00,
2013-03-19 20:00:00,41.6,31.8,30.06,East,90,5.0,6.0,68,0.00,,---,0.00,0.00,VWS V14.01,2013-03-20 01:00:00,
2013-03-19 20:05:00,41.6,31.8,30.06,East,90,2.0,5.0,68,0.00,,---,0.00,0.00,VWS V14.01,2013-03-20 01:05:00,
2013-03-19 20:10:00,41.8,31.7,30.06,ESE,112,5.0,7.0,67,0.00,,---,0.00,0.00,VWS V14.01,2013-03-20 01:10:00,
2013-03-19 20:15:00,41.2,31.5,30.07,SE,135,7.0,8.0,68,0.00,,---,0.00,0.00,VWS V14.01,2013-03-20 01:15:00,
2013-03-19 20:20:00,40.8,31.4,30.07,ESE,112,6.0,7.0,69,0.00,,---,0.00,0.00,VWS V14.01,2013-03-20 01:20:00,
2013-03-19 20:25:00,40.3,31.0,30.07,ESE,112,6.0,7.0,69,0.00,,---,0.00,0.00,VWS V14.01,2013-03-20 01:25:00,
2013-03-19 20:30:00,40.2,31.6,30.08,SE,135,6.0,7.0,71,0.00,,---,0.00,0.00,VWS V14.01,2013-03-20 01:30:00,
2013-03-19 20:35:00,40.3,31.7,30.08,SE,135,7.0,8.0,71,0.00,,---,0.00,0.00,VWS V14.01,2013-03-20 01:35:00,
2013-03-19 20:40:00,40.2,31.6,30.08,SE,135,6.0,7.0,71,0.00,,---,0.00,0.00,VWS V14.01,2013-03-20 01:40:00,
2013-03-19 20:45:00,39.8,31.5,30.08,SE,135,6.0,7.0,72,0.00,,---,0.00,0.00,VWS V14.01,2013-03-20 01:45:00,
2013-03-19 20:50:00,39.6,31.3,30.08,SE,135,7.0,8.0,72,0.00,,---,0.00,0.00,VWS V14.01,2013-03-20 01:50:00,
2013-03-19 20:55:00,39.6,31.7,30.08,SE,135,8.0,8.0,73,0.00,,---,0.00,0.00,VWS V14.01,2013-03-20 01:55:00,
2013-03-19 21:00:00,39.3,31.4,30.08,SE,135,8.0,10.0,73,0.00,,---,0.00,0.00,VWS V14.01,2013-03-20 02:00:00,
2013-03-19 21:05:00,38.9,31.0,30.08,SE,135,8.0,9.0,73,0.00,,---,0.00,0.00,VWS V14.01,2013-03-20 02:05:00,
2013-03-19 21:10:00,38.8,31.2,30.08,SE,135,9.0,11.0,74,0.00,,---,0.00,0.00,VWS V14.01,2013-03-20 02:10:00,
2013-03-19 21:15:00,38.5,31.0,30.08,SE,135,9.0,11.0,74,0.00,,---,0.00,0.00,VWS V14.01,2013-03-20 02:15:00,
2013-03-19 21:20:00,38.3,31.1,30.08,SE,135,10.0,12.0,75,0.00,,---,0.00,0.00,VWS V14.01,2013-03-20 02:20:00,
2013-03-19 21:25:00,38.2,31.0,30.08,SW,225,11.0,13.0,75,0.00,,---,0.00,0.00,VWS V14.01,2013-03-20 02:25:00,
2013-03-19 21:30:00,37.6,30.4,30.05,SE,135,13.0,14.0,75,0.00,,---,0.00,0.00,VWS V14.01,2013-03-20 02:30:00,
2013-03-19 21:35:00,36.9,30.0,30.05,SSE,158,11.0,13.0,76,0.00,,---,0.00,0.00,VWS V14.01,2013-03-20 02:35:00,
2013-03-19 21:40:00,36.3,29.8,30.05,SE,135,11.0,12.0,77,0.00,,---,0.00,0.00,VWS V14.01,2013-03-20 02:40:00,
2013-03-19 21:45:00,35.9,29.7,30.06,SE,135,10.0,11.0,78,0.00,,---,0.00,0.00,VWS V14.01,2013-03-20 02:45:00,
2013-03-19 21:50:00,35.8,29.9,30.06,SE,135,10.0,12.0,79,0.00,,---,0.00,0.00,VWS V14.01,2013-03-20 02:50:00,
2013-03-19 21:55:00,35.8,29.9,30.06,SE,135,8.0,10.0,79,0.00,,---,0.00,0.00,VWS V14.01,2013-03-20 02:55:00,
2013-03-19 22:00:00,35.8,29.9,30.08,SE,135,9.0,10.0,79,0.00,,---,0.00,0.00,VWS V14.01,2013-03-20 03:00:00,
2013-03-19 22:05:00,35.8,29.9,30.08,SE,135,5.0,8.0,79,0.00,,---,0.00,0.00,VWS V14.01,2013-03-20 03:05:00,
2013-03-19 22:10:00,35.8,29.6,30.08,SSE,158,4.0,6.0,78,0.00,,---,0.00,0.00,VWS V14.01,2013-03-20 03:10:00,
2013-03-19 22:15:00,35.8,29.6,30.08,SSE,158,3.0,6.0,78,0.00,,---,0.00,0.00,VWS V14.01,2013-03-20 03:15:00,
2013-03-19 22:20:00,35.5,29.0,30.08,SSE,158,4.0,6.0,77,0.00,,---,0.00,0.00,VWS V14.01,2013-03-20 03:20:00,
2013-03-19 22:25:00,35.3,28.8,30.08,SSE,158,4.0,6.0,77,0.00,,---,0.00,0.00,VWS V14.01,2013-03-20 03:25:00,
2013-03-19 22:30:00,35.3,29.1,30.09,SSE,158,3.0,6.0,78,0.00,,---,0.00,0.00,VWS V14.01,2013-03-20 03:30:00,
2013-03-19 22:35:00,35.5,29.0,30.09,SSE,158,2.0,4.0,77,0.00,,---,0.00,0.00,VWS V14.01,2013-03-20 03:35:00,
2013-03-19 22:40:00,35.5,29.0,30.09,SSE,158,2.0,6.0,77,0.00,,---,0.00,0.00,VWS V14.01,2013-03-20 03:40:00,
2013-03-19 22:45:00,35.5,29.0,30.09,SSE,158,2.0,6.0,77,0.00,,---,0.00,0.00,VWS V14.01,2013-03-20 03:45:00,
2013-03-19 22:50:00,35.3,28.8,30.09,SSE,158,3.0,6.0,77,0.00,,---,0.00,0.00,VWS V14.01,2013-03-20 03:50:00,
2013-03-19 22:55:00,35.2,28.7,30.09,SSE,158,3.0,5.0,77,0.00,,---,0.00,0.00,VWS V14.01,2013-03-20 03:55:00,
2013-03-19 23:00:00,34.9,28.8,30.11,North,0,5.0,13.0,78,0.00,,---,0.00,0.00,VWS V14.01,2013-03-20 04:00:00,
2013-03-19 23:05:00,34.7,29.2,30.11,NNW,338,8.0,14.0,80,0.00,,---,0.00,0.00,VWS V14.01,2013-03-20 04:05:00,
2013-03-19 23:10:00,35.9,30.3,30.11,NW,315,6.0,11.0,80,0.00,,---,0.00,0.00,VWS V14.01,2013-03-20 04:10:00,
2013-03-19 23:15:00,35.8,29.9,30.11,NNE,22,6.0,8.0,79,0.00,,---,0.00,0.00,VWS V14.01,2013-03-20 04:15:00,
2013-03-19 23:20:00,35.5,30.0,30.11,NNE,22,6.0,8.0,80,0.00,,---,0.00,0.00,VWS V14.01,2013-03-20 04:20:00,
2013-03-19 23:25:00,35.5,30.0,30.11,North,0,5.0,6.0,80,0.00,,---,0.00,0.00,VWS V14.01,2013-03-20 04:25:00,
2013-03-19 23:30:00,35.5,30.3,30.12,North,0,3.0,6.0,81,0.00,,---,0.00,0.00,VWS V14.01,2013-03-20 04:30:00,
2013-03-19 23:35:00,35.6,30.4,30.12,North,0,3.0,3.0,81,0.00,,---,0.00,0.00,VWS V14.01,2013-03-20 04:35:00,
2013-03-19 23:40:00,35.6,30.4,30.12,NNE,22,3.0,5.0,81,0.00,,---,0.00,0.00,VWS V14.01,2013-03-20 04:40:00,
2013-03-19 23:45:00,35.2,30.0,30.12,North,0,2.0,3.0,81,0.00,,---,0.00,0.00,VWS V14.01,2013-03-20 04:45:00,
2013-03-19 23:50:00,35.3,30.4,30.12,North,0,4.0,6.0,82,0.00,,---,0.00,0.00,VWS V14.01,2013-03-20 04:50:00,
2013-03-19 23:55:00,35.9,31.0,30.12,North,0,5.0,6.0,82,0.00,,---,0.00,0.00,VWS V14.01,2013-03-20 04:55:00,